Time,TemperatureF,DewpointF,PressureIn,WindDirection,WindDirectionDegrees,WindSpeedMPH,WindSpeedGustMPH,Humidity,HourlyPrecipIn,Conditions,Clouds,dailyrainin,SoftwareType,DateUTC
2013-02-08 00:22:00,28.0,21.0,-100.00,East,85,1.0,-999.0,75,0.00,,,-99.99,,2013-02-08 05:22:00,
2013-02-08 00:32:00,28.0,21.0,-100.00,East,85,1.0,-999.0,75,0.00,,,-99.99,,2013-02-08 05:32:00,
2013-02-08 00:42:00,28.0,21.0,-100.00,East,85,1.0,-999.0,75,0.00,,,-99.99,,2013-02-08 05:42:00,
2013-02-08 01:22:00,29.0,22.0,-100.00,East,82,2.0,-999.0,77,0.00,,,-99.99,,2013-02-08 06:22:00,
2013-02-08 01:32:00,29.0,22.0,-100.00,East,82,2.0,-999.0,77,0.00,,,-99.99,,2013-02-08 06:32:00,
2013-02-08 01:42:00,29.0,22.0,-100.00,East,82,2.0,-999.0,77,0.00,,,-99.99,,2013-02-08 06:42:00,
2013-02-08 02:22:00,31.0,25.0,-100.00,ESE,116,6.0,-999.0,77,0.00,,,-99.99,,2013-02-08 07:22:00,
2013-02-08 02:32:00,31.0,25.0,-100.00,ESE,116,6.0,-999.0,77,0.00,,,-99.99,,2013-02-08 07:32:00,
2013-02-08 02:42:00,31.0,25.0,-100.00,ESE,116,6.0,-999.0,77,0.00,,,-99.99,,2013-02-08 07:42:00,
2013-02-08 03:22:00,32.0,25.0,-100.00,ESE,119,6.0,-999.0,77,0.00,,,-99.99,,2013-02-08 08:22:00,
2013-02-08 03:32:00,32.0,25.0,-100.00,ESE,119,6.0,-999.0,77,0.00,,,-99.99,,2013-02-08 08:32:00,
2013-02-08 03:42:00,32.0,25.0,-100.00,ESE,119,6.0,-999.0,77,0.00,,,-99.99,,2013-02-08 08:42:00,
2013-02-08 04:21:00,32.0,26.0,-100.00,ESE,116,7.0,-999.0,77,0.00,,,-99.99,,2013-02-08 09:21:00,
2013-02-08 04:32:00,32.0,26.0,-100.00,ESE,116,7.0,-999.0,77,0.00,,,-99.99,,2013-02-08 09:32:00,
2013-02-08 04:42:00,32.0,26.0,-100.00,ESE,116,7.0,-999.0,77,0.00,,,-99.99,,2013-02-08 09:42:00,
2013-02-08 05:22:00,32.0,25.0,-100.00,ESE,123,8.0,-999.0,75,0.00,,,-99.99,,2013-02-08 10:22:00,
2013-02-08 05:32:00,32.0,25.0,-100.00,ESE,123,8.0,-999.0,75,0.00,,,-99.99,,2013-02-08 10:32:00,
2013-02-08 05:42:00,32.0,25.0,-100.00,ESE,123,8.0,-999.0,75,0.00,,,-99.99,,2013-02-08 10:42:00,
2013-02-08 06:22:00,32.0,26.0,-100.00,ESE,116,8.0,-999.0,76,0.00,,,-99.99,,2013-02-08 11:22:00,
2013-02-08 06:32:00,32.0,26.0,-100.00,ESE,116,8.0,-999.0,76,0.00,,,-99.99,,2013-02-08 11:32:00,
2013-02-08 06:42:00,32.0,26.0,-100.00,ESE,116,8.0,-999.0,76,0.00,,,-99.99,,2013-02-08 11:42:00,
2013-02-08 07:22:00,32.0,26.0,-100.00,ESE,121,9.0,-999.0,77,0.00,,,-99.99,,2013-02-08 12:22:00,
2013-02-08 07:33:00,32.0,26.0,-100.00,ESE,121,9.0,-999.0,77,0.00,,,-99.99,,2013-02-08 12:33:00,
2013-02-08 07:42:00,32.0,26.0,-100.00,ESE,121,9.0,-999.0,77,0.00,,,-99.99,,2013-02-08 12:42:00,
2013-02-08 08:22:00,33.0,26.0,-100.00,ESE,116,8.0,-999.0,77,0.00,,,-99.99,,2013-02-08 13:22:00,
2013-02-08 08:32:00,33.0,26.0,-100.00,ESE,116,8.0,-999.0,77,0.00,,,-99.99,,2013-02-08 13:32:00,
2013-02-08 08:42:00,33.0,26.0,-100.00,ESE,116,8.0,-999.0,77,0.00,,,-99.99,,2013-02-08 13:42:00,
2013-02-08 09:22:00,33.0,27.0,-100.00,ESE,114,9.0,-999.0,77,0.00,,,-99.99,,2013-02-08 14:22:00,
2013-02-08 09:32:00,33.0,27.0,-100.00,ESE,114,9.0,-999.0,77,0.00,,,-99.99,,2013-02-08 14:32:00,
2013-02-08 09:42:00,33.0,27.0,-100.00,ESE,114,9.0,-999.0,77,0.00,,,-99.99,,2013-02-08 14:42:00,
2013-02-08 10:22:00,33.0,30.0,-100.00,ESE,120,10.0,-999.0,86,0.00,,,-99.99,,2013-02-08 15:22:00,
2013-02-08 10:32:00,33.0,30.0,-100.00,ESE,120,10.0,-999.0,86,0.00,,,-99.99,,2013-02-08 15:32:00,
2013-02-08 10:42:00,33.0,30.0,-100.00,ESE,120,10.0,-999.0,86,0.00,,,-99.99,,2013-02-08 15:42:00,
2013-02-08 11:22:00,33.0,32.0,-100.00,ESE,115,9.0,-999.0,96,0.02,,,-99.99,,2013-02-08 16:22:00,
2013-02-08 11:32:00,33.0,32.0,-100.00,ESE,115,9.0,-999.0,96,0.02,,,-99.99,,2013-02-08 16:32:00,
2013-02-08 11:42:00,33.0,32.0,-100.00,ESE,115,9.0,-999.0,96,0.02,,,-99.99,,2013-02-08 16:42:00,
2013-02-08 12:23:00,33.0,32.0,-100.00,ESE,115,10.0,-999.0,98,0.03,,,-99.99,,2013-02-08 17:23:00,
2013-02-08 12:33:00,33.0,32.0,-100.00,ESE,115,10.0,-999.0,98,0.03,,,-99.99,,2013-02-08 17:33:00,
2013-02-08 12:42:00,33.0,32.0,-100.00,ESE,115,10.0,-999.0,98,0.03,,,-99.99,,2013-02-08 17:42:00,
2013-02-08 13:25:00,33.0,32.0,-100.00,ESE,112,10.0,-999.0,98,0.05,,,-99.99,,2013-02-08 18:25:00,
2013-02-08 13:36:00,33.0,32.0,-100.00,ESE,112,10.0,-999.0,98,0.05,,,-99.99,,2013-02-08 18:36:00,
2013-02-08 13:44:00,33.0,32.0,-100.00,ESE,112,10.0,-999.0,98,0.05,,,-99.99,,2013-02-08 18:44:00,
2013-02-08 14:22:00,33.0,32.0,-100.00,ESE,112,9.0,-999.0,98,0.06,,,-99.99,,2013-02-08 19:22:00,
2013-02-08 14:32:00,33.0,32.0,-100.00,ESE,112,9.0,-999.0,98,0.06,,,-99.99,,2013-02-08 19:32:00,
2013-02-08 14:42:00,33.0,32.0,-100.00,ESE,112,9.0,-999.0,98,0.06,,,-99.99,,2013-02-08 19:42:00,
2013-02-08 15:22:00,33.0,32.0,-100.00,ESE,104,10.0,-999.0,98,0.06,,,-99.99,,2013-02-08 20:22:00,
2013-02-08 15:32:00,33.0,32.0,-100.00,ESE,104,10.0,-999.0,98,0.06,,,-99.99,,2013-02-08 20:32:00,
2013-02-08 15:42:00,33.0,32.0,-100.00,ESE,104,10.0,-999.0,98,0.06,,,-99.99,,2013-02-08 20:42:00,
2013-02-08 16:22:00,33.0,33.0,-100.00,East,96,8.0,-999.0,98,0.07,,,-99.99,,2013-02-08 21:22:00,
2013-02-08 16:33:00,33.0,33.0,-100.00,East,96,8.0,-999.0,98,0.07,,,-99.99,,2013-02-08 21:33:00,
2013-02-08 16:42:00,33.0,33.0,-100.00,East,96,8.0,-999.0,98,0.07,,,-99.99,,2013-02-08 21:42:00,
2013-02-08 18:22:00,33.0,32.0,-100.00,ENE,66,7.0,-999.0,98,0.11,,,-99.99,,2013-02-08 23:22:00,
2013-02-08 18:32:00,33.0,32.0,-100.00,ENE,66,7.0,-999.0,98,0.11,,,-99.99,,2013-02-08 23:32:00,
2013-02-08 18:42:00,33.0,32.0,-100.00,ENE,66,7.0,-999.0,98,0.11,,,-99.99,,2013-02-08 23:42:00,
2013-02-08 20:22:00,32.0,32.0,-100.00,NE,56,12.0,-999.0,99,0.12,,,-99.99,,2013-02-09 01:22:00,
2013-02-08 20:32:00,32.0,32.0,-100.00,NE,56,12.0,-999.0,99,0.12,,,-99.99,,2013-02-09 01:32:00,
2013-02-08 20:42:00,32.0,32.0,-100.00,NE,56,12.0,-999.0,99,0.12,,,-99.99,,2013-02-09 01:42:00,
2013-02-08 21:22:00,32.0,32.0,-100.00,ENE,57,13.0,-999.0,99,0.13,,,-99.99,,2013-02-09 02:22:00,
2013-02-08 21:32:00,32.0,32.0,-100.00,ENE,57,13.0,-999.0,99,0.13,,,-99.99,,2013-02-09 02:32:00,
2013-02-08 21:42:00,32.0,32.0,-100.00,ENE,57,13.0,-999.0,99,0.13,,,-99.99,,2013-02-09 02:42:00,
2013-02-08 23:23:00,32.0,32.0,-100.00,NE,50,12.0,-999.0,99,0.01,,,-99.99,,2013-02-09 04:23:00,
2013-02-08 23:32:00,32.0,32.0,-100.00,NE,50,12.0,-999.0,99,0.01,,,-99.99,,2013-02-09 04:32:00,
2013-02-08 23:42:00,32.0,32.0,-100.00,NE,50,12.0,-999.0,99,0.01,,,-99.99,,2013-02-09 04:42:00,